User: anonymous   Login
Location: Bonac
(42.8765°N, 0.9753°E)
Time: 01:00:25
(UTC+00:00)
Language:

Cosmos 1302 Rocket - Orbit

View from above orbital plane
View from above orbital plane
View from above satellite
View from above satellite

Ground track
Ground track

The orbit is defined by the following mean orbital elements,

1 12792U          26070.76522753 +.00000000 +00000-0 +77536-4 0 00008
2 12792  74.0276 279.8647 0013135 154.8890 205.2906 14.39010124    09
Epoch (UTC): 11 March 2026 18:21:55
Eccentricity: 0.0013135
inclination: 74.0276°
perigee height: 752 km
apogee height: 771 km
right ascension of ascending node: 279.8647°
argument of perigee: 154.8890°
revolutions per day: 14.39010124
mean anomaly at epoch: 205.2906°

The dashed part of the orbit path shows where the satellite is in the earth's shadow,  

DLR